Location: Ferchesar
(52.6477°N, 12.4298°E)
Time: 01:30:31
(UTC+01:00)

Vanguard 2 Rocket - Pass Details

Date: 04 December 2021
Orbit: 554 x 3325 km, 32.9° (Epoch: 21 January)

Event Time Altitude Azimuth Distance (km) Brightness Sun altitude
Rises 20:53:13 0° 244° (WSW) 4,028 10.6 -43.3°
Reaches altitude 10° 20:56:15 10° 229° (SW) 3,415 10.0 -43.7°
Enters shadow 20:58:33 17° 215° (SW) 3,147 9.6 -44.0°
Maximum altitude 21:02:59 24° 181° (S) 3,216 - -44.7°
Drops below altitude 10° 21:12:44 10° 136° (SE) 5,125 - -46.0°
Sets 21:18:45 0° 125° (SE) 6,603 - -46.8°
